| time (UTC) | temp F | wind direction | speed MPH | gust MPH | rain 1hr in | rain 24hr in | rain mn in | humidity % | barometer mb |
| 20260905015933 | 60 | 263 | 0.0 | 0.0 | 0.00 | 0.10 | 0.10 | 65 | 1015.8 |
| 20260905015434 | 60 | 263 | 0.0 | 1.0 | 0.00 | 0.10 | 0.10 | 64 | 1015.8 |
| 20260905014933 | 61 | 263 | 0.0 | 1.0 | 0.00 | 0.10 | 0.10 | 63 | 1015.8 |
| 20260905014435 | 62 | 263 | 0.0 | 1.0 | 0.00 | 0.10 | 0.10 | 61 | 1015.7 |
| 20260905013931 | 62 | 263 | 0.0 | 1.0 | 0.00 | 0.10 | 0.10 | 60 | 1015.6 |
| 20260905013430 | 62 | 263 | 0.0 | 1.0 | 0.00 | 0.10 | 0.10 | 59 | 1015.7 |
| 20260905012932 | 63 | 263 | 0.0 | 1.0 | 0.00 | 0.10 | 0.10 | 60 | 1015.8 |
| 20260905012433 | 63 | 263 | 0.0 | 1.0 | 0.00 | 0.10 | 0.10 | 59 | 1015.9 |
| 20260905012252 | 64 | 263 | 0.0 | 1.0 | 0.00 | 0.10 | 0.10 | 59 | 1015.8 |
| 20260905011432 | 64 | 263 | 0.0 | 2.0 | 0.00 | 0.10 | 0.10 | 58 | 1015.7 |
| 20260905010934 | 64 | 263 | 0.0 | 2.0 | 0.00 | 0.10 | 0.10 | 59 | 1015.7 |
| 20260905010611 | 64 | 263 | 0.0 | 2.0 | 0.00 | 0.10 | 0.10 | 58 | 1015.5 |
| 20260905010531 | 64 | 263 | 0.0 | 2.0 | 0.00 | 0.10 | 0.10 | 58 | 1015.6 |
| 20260905005435 | 64 | 263 | 0.0 | 1.0 | 0.00 | 0.10 | 0.10 | 59 | 1015.4 |
| 20260905004934 | 64 | 264 | 0.0 | 3.0 | 0.00 | 0.10 | 0.10 | 59 | 1015.4 |
| 20260905004428 | 64 | 264 | 0.0 | 3.0 | 0.00 | 0.10 | 0.10 | 59 | 1015.3 |
| 20260905003928 | 64 | 264 | 0.0 | 3.0 | 0.00 | 0.10 | 0.10 | 60 | 1015.3 |
| 20260905003437 | 64 | 264 | 0.0 | 4.0 | 0.00 | 0.10 | 0.10 | 59 | 1015.3 |
| 20260905002932 | 64 | 178 | 0.0 | 4.0 | 0.00 | 0.10 | 0.10 | 61 | 1015.3 |
| 20260905002426 | 63 | 176 | 0.0 | 3.0 | 0.00 | 0.10 | 0.10 | 61 | 1015.2 |
| 20260905001926 | 63 | 174 | 0.0 | 1.0 | 0.00 | 0.10 | 0.10 | 62 | 1015.2 |
| 20260905001426 | 63 | 174 | 0.0 | 2.0 | 0.00 | 0.10 | 0.10 | 62 | 1015.4 |
| 20260905000927 | 63 | 174 | 0.0 | 2.0 | 0.00 | 0.10 | 0.10 | 61 | 1015.4 |
| 20260905000426 | 63 | 174 | 0.0 | 2.0 | 0.00 | 0.10 | 0.10 | 60 | 1015.4 |
| 20260904235926 | 64 | 175 | 0.0 | 3.0 | 0.00 | 0.10 | 0.10 | 58 | 1015.4 |
| 20260904235424 | 65 | 175 | 0.0 | 5.0 | 0.00 | 0.10 | 0.10 | 57 | 1015.4 |
| 20260904234926 | 65 | 171 | 1.0 | 6.0 | 0.00 | 0.10 | 0.10 | 55 | 1015.4 |
| 20260904234425 | 65 | 169 | 1.0 | 5.0 | 0.00 | 0.10 | 0.10 | 55 | 1015.5 |
| 20260904233937 | 65 | 141 | 1.0 | 4.0 | 0.00 | 0.10 | 0.10 | 59 | 1015.5 |
| 20260904233423 | 65 | 141 | 1.0 | 4.0 | 0.00 | 0.10 | 0.10 | 59 | 1015.4 |
| 20260904232922 | 65 | 77 | 1.0 | 4.0 | 0.00 | 0.10 | 0.10 | 57 | 1015.4 |
| 20260904232423 | 64 | 140 | 0.0 | 3.0 | 0.00 | 0.10 | 0.10 | 64 | 1015.4 |
| 20260904231922 | 64 | 149 | 0.0 | 3.0 | 0.00 | 0.10 | 0.10 | 63 | 1015.4 |
| 20260904231425 | 63 | 150 | 0.0 | 3.0 | 0.00 | 0.10 | 0.10 | 64 | 1015.4 |
| 20260904230924 | 63 | 149 | 0.0 | 5.0 | 0.00 | 0.10 | 0.10 | 65 | 1015.5 |
| 20260904230422 | 62 | 150 | 0.0 | 5.0 | 0.00 | 0.10 | 0.10 | 64 | 1015.4 |
| 20260904225922 | 62 | 154 | 0.0 | 2.0 | 0.00 | 0.10 | 0.10 | 64 | 1015.5 |
| 20260904225423 | 62 | 154 | 0.0 | 2.0 | 0.00 | 0.10 | 0.10 | 64 | 1015.4 |
| 20260904224923 | 62 | 154 | 0.0 | 3.0 | 0.00 | 0.10 | 0.10 | 66 | 1015.4 |
| 20260904224742 | 61 | 154 | 0.0 | 6.0 | 0.00 | 0.10 | 0.10 | 68 | 1015.4 |
| 20260904223923 | 61 | 158 | 0.0 | 6.0 | 0.00 | 0.10 | 0.10 | 68 | 1015.5 |
| 20260904223736 | 61 | 155 | 1.0 | 6.0 | 0.00 | 0.10 | 0.10 | 67 | 1015.3 |
| 20260904222930 | 61 | 156 | 1.0 | 6.0 | 0.00 | 0.10 | 0.10 | 68 | 1015.4 |
| 20260904222421 | 61 | 158 | 1.0 | 6.0 | 0.00 | 0.10 | 0.10 | 69 | 1015.4 |
| 20260904222235 | 61 | 157 | 1.0 | 4.0 | 0.00 | 0.10 | 0.10 | 68 | 1015.4 |
| 20260904221417 | 61 | 168 | 1.0 | 6.0 | 0.00 | 0.10 | 0.10 | 68 | 1015.4 |
| 20260904220918 | 61 | 172 | 1.0 | 6.0 | 0.00 | 0.10 | 0.10 | 68 | 1015.4 |
| 20260904220417 | 61 | 185 | 1.0 | 4.0 | 0.00 | 0.10 | 0.10 | 68 | 1015.4 |
| 20260904215917 | 61 | 208 | 0.0 | 6.0 | 0.00 | 0.10 | 0.10 | 69 | 1015.4 |
| 20260904215422 | 61 | 159 | 0.0 | 6.0 | 0.00 | 0.10 | 0.10 | 70 | 1015.3 |
| 20260904214914 | 61 | 159 | 0.0 | 6.0 | 0.00 | 0.10 | 0.10 | 69 | 1015.4 |
| 20260904214414 | 61 | 89 | 0.0 | 6.0 | 0.00 | 0.10 | 0.10 | 70 | 1015.3 |
| 20260904214227 | 60 | 89 | 0.0 | 2.0 | 0.00 | 0.10 | 0.10 | 68 | 1015.3 |
| 20260904213409 | 60 | 89 | 0.0 | 2.0 | 0.00 | 0.10 | 0.10 | 71 | 1015.3 |
| 20260904212908 | 60 | 89 | 0.0 | 2.0 | 0.00 | 0.10 | 0.10 | 70 | 1015.3 |
| 20260904212408 | 60 | 89 | 0.0 | 2.0 | 0.00 | 0.10 | 0.10 | 71 | 1015.2 |
| 20260904211909 | 60 | 89 | 0.0 | 2.0 | 0.00 | 0.10 | 0.10 | 71 | 1015.2 |
| 20260904211405 | 59 | 89 | 1.0 | 5.0 | 0.00 | 0.10 | 0.10 | 70 | 1015.3 |
| 20260904210905 | 59 | 89 | 1.0 | 5.0 | 0.00 | 0.10 | 0.10 | 71 | 1015.3 |
| 20260904210405 | 59 | 54 | 0.0 | 2.0 | 0.00 | 0.10 | 0.10 | 71 | 1015.2 |
| 20260904205906 | 59 | 54 | 0.0 | 2.0 | 0.00 | 0.10 | 0.10 | 72 | 1015.2 |
| 20260904205405 | 58 | 54 | 0.0 | 2.0 | 0.00 | 0.10 | 0.10 | 72 | 1015.1 |
| 20260904204907 | 58 | 54 | 0.0 | 2.0 | 0.00 | 0.10 | 0.10 | 73 | 1015.2 |
| 20260904204406 | 58 | 52 | 1.0 | 6.0 | 0.00 | 0.10 | 0.10 | 73 | 1015.2 |
| 20260904203910 | 58 | 51 | 1.0 | 6.0 | 0.00 | 0.10 | 0.10 | 73 | 1015.2 |
| 20260904203406 | 58 | 106 | 1.0 | 6.0 | 0.00 | 0.10 | 0.10 | 74 | 1015.1 |
| 20260904203225 | 58 | 48 | 1.0 | 6.0 | 0.00 | 0.10 | 0.10 | 73 | 1015.1 |
| 20260904202726 | 58 | 93 | 1.0 | 6.0 | 0.00 | 0.10 | 0.10 | 73 | 1015.1 |
| 20260904202233 | 58 | 68 | 1.0 | 5.0 | 0.00 | 0.10 | 0.10 | 72 | 1015.1 |
| 20260904201418 | 59 | 75 | 1.0 | 5.0 | 0.00 | 0.10 | 0.10 | 72 | 1014.9 |
| 20260904200904 | 59 | 135 | 1.0 | 5.0 | 0.00 | 0.10 | 0.10 | 73 | 1014.9 |
| 20260904200403 | 59 | 66 | 1.0 | 5.0 | 0.00 | 0.10 | 0.10 | 73 | 1014.8 |
| 20260904195904 | 59 | 125 | 0.0 | 5.0 | 0.00 | 0.10 | 0.10 | 72 | 1014.8 |
| 20260904195404 | 59 | 181 | 1.0 | 5.0 | 0.00 | 0.10 | 0.10 | 75 | 1014.7 |
| 20260904195217 | 59 | 181 | 1.0 | 5.0 | 0.00 | 0.10 | 0.10 | 74 | 1014.7 |
| 20260904194404 | 59 | 86 | 0.0 | 6.0 | 0.00 | 0.10 | 0.10 | 73 | 1014.7 |
| 20260904193903 | 59 | 137 | 0.0 | 6.0 | 0.00 | 0.10 | 0.10 | 74 | 1014.7 |
| 20260904193405 | 59 | 138 | 1.0 | 6.0 | 0.00 | 0.10 | 0.10 | 75 | 1014.7 |
| 20260904192903 | 58 | 167 | 1.0 | 6.0 | 0.00 | 0.10 | 0.10 | 77 | 1014.7 |
| 20260904192404 | 58 | 160 | 1.0 | 5.0 | 0.00 | 0.10 | 0.10 | 76 | 1014.7 |
| 20260904191905 | 58 | 158 | 1.0 | 5.0 | 0.00 | 0.10 | 0.10 | 77 | 1014.8 |
| 20260904191406 | 57 | 139 | 1.0 | 3.0 | 0.00 | 0.10 | 0.10 | 77 | 1014.8 |
| 20260904191229 | 57 | 139 | 1.0 | 5.0 | 0.00 | 0.10 | 0.10 | 78 | 1014.8 |
| 20260904190405 | 57 | 132 | 1.0 | 5.0 | 0.00 | 0.10 | 0.10 | 79 | 1014.8 |
| 20260904185909 | 56 | 102 | 1.0 | 4.0 | 0.00 | 0.10 | 0.10 | 79 | 1014.7 |
| 20260904185414 | 56 | 166 | 0.0 | 4.0 | 0.00 | 0.10 | 0.10 | 81 | 1014.6 |
| 20260904184911 | 56 | 170 | 0.0 | 5.0 | 0.00 | 0.10 | 0.10 | 81 | 1014.7 |
| 20260904184403 | 55 | 171 | 0.0 | 5.0 | 0.00 | 0.10 | 0.10 | 81 | 1014.6 |
| 20260904183903 | 55 | 171 | 0.0 | 4.0 | 0.00 | 0.10 | 0.10 | 82 | 1014.6 |
| 20260904183715 | 54 | 171 | 0.0 | 4.0 | 0.00 | 0.10 | 0.10 | 84 | 1014.6 |
| 20260904182901 | 54 | 83 | 0.0 | 2.0 | 0.00 | 0.10 | 0.10 | 85 | 1014.6 |
| 20260904182400 | 53 | 83 | 0.0 | 1.0 | 0.00 | 0.10 | 0.10 | 86 | 1014.5 |
| 20260904181904 | 53 | 83 | 0.0 | 2.0 | 0.00 | 0.10 | 0.10 | 86 | 1014.3 |
| 20260904181402 | 53 | 83 | 0.0 | 4.0 | 0.00 | 0.10 | 0.10 | 87 | 1014.3 |
| 20260904180902 | 53 | 83 | 0.0 | 4.0 | 0.00 | 0.10 | 0.10 | 88 | 1014.3 |
| 20260904180358 | 52 | 83 | 0.0 | 2.0 | 0.00 | 0.10 | 0.10 | 89 | 1014.3 |
| 20260904175851 | 52 | 83 | 0.0 | 3.0 | 0.00 | 0.10 | 0.10 | 89 | 1014.3 |
| 20260904175350 | 52 | 83 | 0.0 | 3.0 | 0.00 | 0.10 | 0.10 | 92 | 1014.3 |
| 20260904174850 | 52 | 83 | 0.0 | 3.0 | 0.00 | 0.10 | 0.10 | 89 | 1014.2 |
| 20260904174704 | 52 | 83 | 0.0 | 3.0 | 0.00 | 0.10 | 0.10 | 89 | 1014.1 |
| 20260904173845 | 52 | 83 | 0.0 | 1.0 | 0.00 | 0.10 | 0.10 | 89 | 1014.1 |
| 20260904173344 | 52 | 83 | 0.0 | 1.0 | 0.00 | 0.10 | 0.10 | 89 | 1014.1 |
| 20260904172840 | 52 | 83 | 0.0 | 0.0 | 0.00 | 0.10 | 0.10 | 89 | 1014.1 |
| 20260904172338 | 51 | 83 | 0.0 | 0.0 | 0.00 | 0.10 | 0.10 | 89 | 1014.0 |
| 20260904172158 | 51 | 83 | 0.0 | 0.0 | 0.00 | 0.10 | 0.10 | 89 | 1013.9 |
| 20260904171337 | 51 | 83 | 0.0 | 0.0 | 0.00 | 0.10 | 0.10 | 92 | 1014.0 |
| 20260904170838 | 51 | 83 | 0.0 | 3.0 | 0.00 | 0.10 | 0.10 | 89 | 1013.9 |
| 20260904170336 | 51 | 83 | 0.0 | 3.0 | 0.00 | 0.10 | 0.10 | 89 | 1013.9 |
| 20260904165835 | 51 | 83 | 0.0 | 3.0 | 0.00 | 0.10 | 0.10 | 89 | 1013.8 |
| 20260904165335 | 51 | 83 | 0.0 | 3.0 | 0.00 | 0.10 | 0.10 | 89 | 1013.8 |
| 20260904164831 | 51 | 83 | 0.0 | 2.0 | 0.00 | 0.10 | 0.10 | 89 | 1013.8 |
| 20260904164331 | 51 | 83 | 0.0 | 2.0 | 0.00 | 0.10 | 0.10 | 89 | 1013.7 |
| 20260904163830 | 51 | 83 | 0.0 | 2.0 | 0.00 | 0.10 | 0.10 | 89 | 1013.7 |
| 20260904163653 | 51 | 83 | 0.0 | 2.0 | 0.00 | 0.10 | 0.10 | 89 | 1013.7 |
| 20260904162830 | 51 | 83 | 0.0 | 2.0 | 0.00 | 0.10 | 0.10 | 89 | 1013.6 |
| 20260904162330 | 51 | 83 | 0.0 | 1.0 | 0.00 | 0.10 | 0.10 | 89 | 1013.6 |
| 20260904161830 | 50 | 83 | 0.0 | 0.0 | 0.00 | 0.10 | 0.10 | 89 | 1013.5 |
| 20260904161331 | 50 | 83 | 0.0 | 0.0 | 0.00 | 0.10 | 0.10 | 89 | 1013.4 |
| 20260904160831 | 50 | 83 | 0.0 | 0.0 | 0.00 | 0.10 | 0.10 | 89 | 1013.4 |
| 20260904160653 | 50 | 83 | 0.0 | 0.0 | 0.00 | 0.10 | 0.10 | 89 | 1013.4 |
| 20260904155830 | 51 | 83 | 0.0 | 0.0 | 0.00 | 0.10 | 0.10 | 89 | 1013.2 |
| 20260904155330 | 51 | 83 | 0.0 | 0.0 | 0.00 | 0.10 | 0.10 | 89 | 1013.1 |
| 20260904154831 | 51 | 83 | 0.0 | 0.0 | 0.00 | 0.10 | 0.10 | 89 | 1013.0 |
| 20260904154331 | 51 | 83 | 0.0 | 0.0 | 0.00 | 0.10 | 0.10 | 89 | 1012.9 |
| 20260904153832 | 51 | 83 | 0.0 | 0.0 | 0.00 | 0.10 | 0.10 | 89 | 1013.0 |
| 20260904153330 | 51 | 83 | 0.0 | 0.0 | 0.00 | 0.10 | 0.10 | 89 | 1013.0 |
| 20260904152831 | 51 | 83 | 0.0 | 0.0 | 0.00 | 0.10 | 0.10 | 89 | 1013.1 |
| 20260904152330 | 51 | 83 | 0.0 | 0.0 | 0.00 | 0.10 | 0.10 | 88 | 1013.1 |
| 20260904151834 | 51 | 83 | 0.0 | 0.0 | 0.00 | 0.10 | 0.10 | 88 | 1013.0 |
| 20260904151336 | 51 | 83 | 0.0 | 0.0 | 0.00 | 0.10 | 0.10 | 88 | 1012.9 |
| 20260904150833 | 51 | 83 | 0.0 | 0.0 | 0.00 | 0.10 | 0.10 | 88 | 1012.9 |
| 20260904150346 | 51 | 83 | 0.0 | 0.0 | 0.00 | 0.10 | 0.10 | 88 | 1012.9 |
| 20260904145846 | 50 | 83 | 0.0 | 0.0 | 0.00 | 0.10 | 0.10 | 87 | 1012.8 |
| 20260904145334 | 50 | 83 | 0.0 | 0.0 | 0.00 | 0.10 | 0.10 | 87 | 1012.8 |
| 20260904144830 | 50 | 83 | 0.0 | 1.0 | 0.00 | 0.10 | 0.10 | 87 | 1012.6 |
| 20260904144327 | 50 | 83 | 0.0 | 1.0 | 0.00 | 0.11 | 0.10 | 87 | 1012.4 |
| 20260904143829 | 50 | 83 | 0.0 | 2.0 | 0.00 | 0.11 | 0.10 | 87 | 1012.5 |
| 20260904143328 | 50 | 83 | 0.0 | 2.0 | 0.00 | 0.11 | 0.10 | 87 | 1012.4 |
| 20260904142824 | 50 | 83 | 0.0 | 0.0 | 0.00 | 0.12 | 0.10 | 87 | 1012.3 |
| 20260904142636 | 49 | 83 | 0.0 | 0.0 | 0.00 | 0.12 | 0.10 | 87 | 1012.2 |
| 20260904141811 | 49 | 83 | 0.0 | 0.0 | 0.00 | 0.12 | 0.10 | 87 | 1012.2 |
| 20260904141532 | 0 | 0.0 | 0.0 | 0.00 | 0.00 | 0.00 | |||
| 20260904141326 | 0 | 0.0 | 0.0 | 0.00 | 0.00 | 0.00 | |||
| 20260904140529 | 0 | 0.0 | 0.0 | 0.00 | 0.00 | 0.00 | |||
| 20260904140031 | 0 | 0.0 | 0.0 | 0.00 | 0.00 | 0.00 | |||
| 20260904135822 | 0 | 0.0 | 0.0 | 0.00 | 0.00 | 0.00 | |||
| 20260904135030 | 0 | 0.0 | 0.0 | 0.00 | 0.00 | 0.00 | |||
| 20260904134529 | 0 | 0.0 | 0.0 | 0.00 | 0.00 | 0.00 | |||
| 20260904134031 | 0 | 0.0 | 0.0 | 0.00 | 0.00 | 0.00 | |||
| 20260904133814 | 0 | 0.0 | 0.0 | 0.00 | 0.00 | 0.00 | |||
| 20260904133032 | 0 | 0.0 | 0.0 | 0.00 | 0.00 | 0.00 | |||
| 20260904132812 | 0 | 0.0 | 0.0 | 0.00 | 0.00 | 0.00 | |||
| 20260904132029 | 0 | 0.0 | 0.0 | 0.00 | 0.00 | 0.00 | |||
| 20260904131804 | 0 | 0.0 | 0.0 | 0.00 | 0.00 | 0.00 | |||
| 20260904131006 | 0 | 0.0 | 0.0 | 0.00 | 0.00 | 0.00 | |||
| 20260904130742 | 0 | 0.0 | 0.0 | 0.00 | 0.00 | 0.00 | |||
| 20260904130006 | 0 | 0.0 | 0.0 | 0.00 | 0.00 | 0.00 | |||
| 20260904125506 | 0 | 0.0 | 0.0 | 0.00 | 0.00 | 0.00 | |||
| 20260904125005 | 0 | 0.0 | 0.0 | 0.00 | 0.00 | 0.00 | |||
| 20260904124505 | 0 | 0.0 | 0.0 | 0.00 | 0.00 | 0.00 | |||
| 20260904123958 | 0 | 0.0 | 0.0 | 0.00 | 0.00 | 0.00 | |||
| 20260904123733 | 0 | 0.0 | 0.0 | 0.00 | 0.20 | 0.10 | |||
| 20260904123234 | 0 | 0.0 | 0.0 | 0.00 | 0.20 | 0.10 | |||
| 20260904122731 | 0 | 0.0 | 0.0 | 0.00 | 0.20 | 0.10 | |||
| 20260904122513 | 0 | 0.0 | 0.0 | 0.00 | 0.20 | 0.10 | |||
| 20260904121734 | 0 | 0.0 | 0.0 | 0.00 | 0.21 | 0.10 | |||
| 20260904121230 | 49 | 93 | 0.0 | 0.0 | 0.00 | 0.21 | 0.10 | 90 | 1010.6 |
| 20260904120733 | 49 | 93 | 0.0 | 0.0 | 0.00 | 0.22 | 0.10 | 90 | 1010.6 |
| 20260904120243 | 49 | 93 | 0.0 | 0.0 | 0.00 | 0.22 | 0.10 | 90 | 1010.5 |
| 20260904115731 | 49 | 93 | 0.0 | 0.0 | 0.00 | 0.22 | 0.10 | 90 | 1010.5 |
| 20260904115413 | 49 | 93 | 0.0 | 0.0 | 0.00 | 0.22 | 0.10 | 90 | 1010.3 |
| 20260904115333 | 49 | 93 | 0.0 | 0.0 | 0.00 | 0.22 | 0.10 | 90 | 1010.5 |
| 20260904114546 | 49 | 93 | 0.0 | 0.0 | 0.00 | 0.23 | 0.10 | 90 | 1010.2 |
| 20260904113734 | 49 | 93 | 0.0 | 0.0 | 0.00 | 0.23 | 0.10 | 90 | 1010.1 |
| 20260904113232 | 49 | 93 | 0.0 | 0.0 | 0.00 | 0.24 | 0.10 | 90 | 1010.2 |
| 20260904112731 | 49 | 93 | 0.0 | 0.0 | 0.00 | 0.24 | 0.10 | 90 | 1010.2 |
| 20260904112230 | 49 | 93 | 0.0 | 0.0 | 0.00 | 0.24 | 0.10 | 90 | 1010.2 |
| 20260904112047 | 49 | 93 | 0.0 | 0.0 | 0.00 | 0.24 | 0.10 | 90 | 1010.2 |
| 20260904111243 | 49 | 93 | 0.0 | 0.0 | 0.00 | 0.24 | 0.10 | 90 | 1010.3 |
| 20260904110731 | 49 | 93 | 0.0 | 0.0 | 0.00 | 0.24 | 0.10 | 90 | 1010.3 |
| 20260904110244 | 49 | 93 | 0.0 | 0.0 | 0.00 | 0.24 | 0.10 | 90 | 1010.0 |
| 20260904105732 | 49 | 93 | 0.0 | 0.0 | 0.00 | 0.24 | 0.10 | 90 | 1009.9 |
| 20260904105230 | 49 | 93 | 0.0 | 0.0 | 0.00 | 0.24 | 0.10 | 90 | 1009.9 |
| 20260904104731 | 49 | 93 | 0.0 | 0.0 | 0.00 | 0.24 | 0.10 | 90 | 1010.0 |
| 20260904104231 | 49 | 93 | 0.0 | 0.0 | 0.00 | 0.24 | 0.10 | 90 | 1010.0 |
| 20260904103733 | 49 | 93 | 0.0 | 0.0 | 0.00 | 0.24 | 0.10 | 90 | 1009.9 |
| 20260904103234 | 49 | 93 | 0.0 | 0.0 | 0.00 | 0.24 | 0.10 | 90 | 1009.4 |
| 20260904102740 | 49 | 93 | 0.0 | 0.0 | 0.00 | 0.24 | 0.10 | 90 | 1009.5 |
| 20260904102230 | 49 | 93 | 0.0 | 0.0 | 0.00 | 0.24 | 0.10 | 89 | 1009.6 |
| 20260904102049 | 49 | 93 | 0.0 | 0.0 | 0.00 | 0.24 | 0.10 | 89 | 1009.7 |
| 20260904101550 | 49 | 93 | 0.0 | 0.0 | 0.01 | 0.24 | 0.10 | 89 | 1009.7 |
| 20260904100731 | 49 | 93 | 0.0 | 0.0 | 0.01 | 0.24 | 0.10 | 89 | 1009.5 |
| 20260904100230 | 49 | 93 | 0.0 | 0.0 | 0.01 | 0.24 | 0.10 | 89 | 1009.5 |
| 20260904095731 | 49 | 93 | 0.0 | 0.0 | 0.01 | 0.23 | 0.10 | 89 | 1009.5 |
| 20260904095233 | 50 | 93 | 0.0 | 2.0 | 0.01 | 0.23 | 0.10 | 89 | 1009.7 |
| 20260904095048 | 50 | 93 | 0.0 | 2.0 | 0.01 | 0.23 | 0.10 | 89 | 1009.6 |
| 20260904094232 | 50 | 93 | 0.0 | 0.0 | 0.01 | 0.23 | 0.10 | 89 | 1009.7 |
| 20260904093731 | 49 | 93 | 0.0 | 0.0 | 0.01 | 0.23 | 0.10 | 89 | 1009.9 |
| 20260904093230 | 50 | 93 | 0.0 | 0.0 | 0.02 | 0.23 | 0.10 | 89 | 1009.9 |
| 20260904092731 | 50 | 93 | 0.0 | 0.0 | 0.02 | 0.23 | 0.10 | 89 | 1009.7 |
| 20260904092231 | 50 | 93 | 0.0 | 0.0 | 0.02 | 0.23 | 0.10 | 89 | 1009.8 |
| 20260904091731 | 50 | 93 | 0.0 | 0.0 | 0.02 | 0.23 | 0.09 | 89 | 1010.1 |
| 20260904091231 | 50 | 93 | 0.0 | 0.0 | 0.02 | 0.23 | 0.09 | 89 | 1010.2 |
| 20260904090730 | 50 | 93 | 0.0 | 0.0 | 0.02 | 0.23 | 0.09 | 89 | 1010.1 |
| 20260904090243 | 50 | 93 | 0.0 | 0.0 | 0.03 | 0.23 | 0.09 | 89 | 1009.8 |
| 20260904085732 | 50 | 93 | 0.0 | 0.0 | 0.04 | 0.20 | 0.09 | 88 | 1009.7 |
| 20260904085231 | 50 | 93 | 0.0 | 0.0 | 0.05 | 0.20 | 0.09 | 88 | 1009.7 |
| 20260904084730 | 50 | 93 | 0.0 | 1.0 | 0.06 | 0.20 | 0.09 | 87 | 1009.6 |
| 20260904084231 | 50 | 93 | 0.0 | 1.0 | 0.06 | 0.20 | 0.09 | 87 | 1009.7 |
| 20260904083731 | 50 | 93 | 0.0 | 1.0 | 0.06 | 0.20 | 0.09 | 87 | 1009.7 |
| 20260904083544 | 50 | 93 | 0.0 | 0.0 | 0.06 | 0.20 | 0.09 | 87 | 1009.7 |
| 20260904082731 | 50 | 93 | 0.0 | 1.0 | 0.06 | 0.20 | 0.09 | 87 | 1009.6 |
| 20260904082232 | 50 | 93 | 0.0 | 1.0 | 0.06 | 0.20 | 0.08 | 87 | 1009.8 |
| 20260904081913 | 51 | 93 | 0.0 | 1.0 | 0.06 | 0.20 | 0.07 | 85 | 1010.0 |
| 20260904081832 | 51 | 93 | 0.0 | 0.0 | 0.06 | 0.20 | 0.08 | 87 | 1010.0 |
| 20260904080744 | 50 | 93 | 0.0 | 1.0 | 0.06 | 0.20 | 0.06 | 84 | 1010.1 |
| 20260904080231 | 51 | 93 | 0.0 | 0.0 | 0.06 | 0.20 | 0.06 | 85 | 1010.1 |
| 20260904075731 | 51 | 93 | 0.0 | 0.0 | 0.06 | 0.13 | 0.06 | 86 | 1010.0 |
| 20260904075230 | 51 | 93 | 0.0 | 0.0 | 0.05 | 0.13 | 0.05 | 84 | 1010.0 |
| 20260904075047 | 51 | 93 | 0.0 | 0.0 | 0.04 | 0.13 | 0.04 | 84 | 1010.0 |
| 20260904074546 | 51 | 93 | 0.0 | 0.0 | 0.03 | 0.13 | 0.03 | 83 | 1010.0 |
| 20260904073727 | 51 | 93 | 0.0 | 0.0 | 0.03 | 0.13 | 0.03 | 83 | 1009.9 |
| 20260904073550 | 51 | 93 | 0.0 | 0.0 | 0.02 | 0.13 | 0.02 | 82 | 1009.9 |
| 20260904072727 | 51 | 93 | 0.0 | 0.0 | 0.02 | 0.13 | 0.02 | 81 | 1009.9 |
| 20260904072543 | 52 | 93 | 0.0 | 0.0 | 0.02 | 0.13 | 0.02 | 79 | 1009.8 |
| 20260904071721 | 52 | 93 | 0.0 | 0.0 | 0.02 | 0.13 | 0.02 | 79 | 1009.8 |
| 20260904071236 | 52 | 93 | 0.0 | 0.0 | 0.02 | 0.13 | 0.02 | 78 | 1009.7 |
| 20260904070723 | 52 | 93 | 0.0 | 0.0 | 0.01 | 0.13 | 0.01 | 75 | 1009.7 |
| 20260904070536 | 53 | 93 | 0.0 | 0.0 | 0.00 | 0.13 | 0.00 | 72 | 1009.6 |
| 20260904065720 | 53 | 93 | 0.0 | 0.0 | 0.00 | 0.13 | 0.13 | 75 | 1009.6 |
| 20260904065217 | 53 | 93 | 0.0 | 0.0 | 0.00 | 0.13 | 0.13 | 72 | 1009.6 |
| 20260904064715 | 53 | 93 | 0.0 | 2.0 | 0.00 | 0.13 | 0.13 | 71 | 1009.6 |
| 20260904064216 | 53 | 93 | 0.0 | 2.0 | 0.00 | 0.13 | 0.13 | 69 | 1009.4 |
| 20260904063718 | 54 | 93 | 0.0 | 0.0 | 0.00 | 0.13 | 0.13 | 69 | 1009.2 |
| 20260904063216 | 54 | 93 | 0.0 | 0.0 | 0.00 | 0.13 | 0.13 | 68 | 1009.1 |
| 20260904062711 | 54 | 93 | 0.0 | 0.0 | 0.00 | 0.13 | 0.13 | 68 | 1009.1 |
| 20260904062519 | 54 | 93 | 0.0 | 0.0 | 0.00 | 0.13 | 0.13 | 68 | 1009.1 |
| 20260904061712 | 54 | 93 | 0.0 | 0.0 | 0.00 | 0.13 | 0.13 | 68 | 1009.4 |
| 20260904061525 | 54 | 93 | 0.0 | 0.0 | 0.00 | 0.13 | 0.13 | 67 | 1009.5 |
| 20260904060706 | 54 | 93 | 0.0 | 0.0 | 0.00 | 0.13 | 0.13 | 67 | 1009.5 |
| 20260904060515 | 54 | 93 | 0.0 | 1.0 | 0.00 | 0.13 | 0.13 | 67 | 1009.5 |
| 20260904055703 | 54 | 93 | 0.0 | 1.0 | 0.00 | 0.13 | 0.13 | 67 | 1009.6 |
| 20260904055217 | 54 | 93 | 0.0 | 1.0 | 0.00 | 0.13 | 0.13 | 67 | 1009.7 |
| 20260904054703 | 54 | 93 | 0.0 | 1.0 | 0.00 | 0.13 | 0.13 | 67 | 1009.6 |
| 20260904054207 | 54 | 93 | 0.0 | 0.0 | 0.00 | 0.13 | 0.13 | 66 | 1009.6 |
| 20260904053809 | 54 | 93 | 0.0 | 3.0 | 0.00 | 0.13 | 0.13 | 65 | 1009.6 |
| 20260904052708 | 54 | 93 | 0.0 | 3.0 | 0.00 | 0.13 | 0.13 | 64 | 1009.5 |
| 20260904052219 | 54 | 93 | 0.0 | 3.0 | 0.00 | 0.13 | 0.13 | 63 | 1009.5 |
| 20260904051708 | 54 | 93 | 0.0 | 3.0 | 0.00 | 0.13 | 0.13 | 64 | 1009.6 |
| 20260904051207 | 55 | 94 | 0.0 | 3.0 | 0.00 | 0.13 | 0.13 | 64 | 1009.7 |
| 20260904050704 | 55 | 94 | 0.0 | 2.0 | 0.00 | 0.13 | 0.13 | 63 | 1009.6 |
| 20260904050202 | 55 | 94 | 0.0 | 1.0 | 0.00 | 0.13 | 0.13 | 64 | 1009.7 |
| 20260904045702 | 54 | 94 | 0.0 | 0.0 | 0.00 | 0.13 | 0.13 | 64 | 1009.9 |
| 20260904045205 | 54 | 94 | 0.0 | 0.0 | 0.00 | 0.13 | 0.13 | 65 | 1009.8 |
| 20260904045019 | 54 | 94 | 0.0 | 0.0 | 0.00 | 0.13 | 0.13 | 65 | 1009.9 |
| 20260904044216 | 54 | 94 | 0.0 | 0.0 | 0.00 | 0.13 | 0.13 | 64 | 1009.8 |
| 20260904043717 | 54 | 94 | 0.0 | 0.0 | 0.00 | 0.13 | 0.13 | 64 | 1009.8 |
| 20260904043203 | 54 | 94 | 0.0 | 0.0 | 0.00 | 0.13 | 0.13 | 65 | 1009.9 |
| 20260904042703 | 54 | 94 | 0.0 | 0.0 | 0.00 | 0.13 | 0.13 | 66 | 1009.8 |
| 20260904042218 | 54 | 94 | 0.0 | 0.0 | 0.00 | 0.13 | 0.13 | 66 | 1009.9 |
| 20260904042008 | 54 | 94 | 0.0 | 0.0 | 0.00 | 0.13 | 0.13 | 66 | 1009.9 |
| 20260904041218 | 54 | 94 | 0.0 | 0.0 | 0.00 | 0.13 | 0.13 | 66 | 1009.8 |
| 20260904040709 | 55 | 94 | 0.0 | 0.0 | 0.00 | 0.13 | 0.13 | 66 | 1009.8 |
| 20260904040209 | 55 | 94 | 0.0 | 0.0 | 0.00 | 0.13 | 0.13 | 65 | 1009.7 |
| 20260904035701 | 55 | 94 | 0.0 | 0.0 | 0.00 | 0.13 | 0.13 | 64 | 1009.7 |
| 20260904035203 | 55 | 94 | 0.0 | 0.0 | 0.00 | 0.13 | 0.13 | 64 | 1009.6 |
| 20260904034701 | 55 | 94 | 0.0 | 0.0 | 0.00 | 0.13 | 0.13 | 64 | 1009.6 |
| 20260904034202 | 55 | 94 | 0.0 | 0.0 | 0.00 | 0.13 | 0.13 | 64 | 1009.6 |
| 20260904034021 | 55 | 94 | 0.0 | 0.0 | 0.00 | 0.13 | 0.13 | 64 | 1009.6 |
| 20260904033203 | 56 | 94 | 0.0 | 0.0 | 0.00 | 0.13 | 0.13 | 64 | 1009.7 |
| 20260904032701 | 56 | 94 | 0.0 | 0.0 | 0.00 | 0.13 | 0.13 | 63 | 1009.7 |
| 20260904032203 | 56 | 94 | 0.0 | 0.0 | 0.00 | 0.13 | 0.13 | 63 | 1009.6 |
| 20260904031701 | 56 | 94 | 0.0 | 0.0 | 0.00 | 0.13 | 0.13 | 62 | 1009.6 |
| 20260904031202 | 56 | 94 | 0.0 | 0.0 | 0.00 | 0.13 | 0.13 | 62 | 1009.6 |
| 20260904030705 | 57 | 94 | 0.0 | 0.0 | 0.00 | 0.13 | 0.13 | 62 | 1009.6 |
| 20260904030204 | 57 | 94 | 0.0 | 0.0 | 0.00 | 0.13 | 0.13 | 60 | 1009.5 |
| 20260904025704 | 58 | 94 | 0.0 | 0.0 | 0.00 | 0.13 | 0.13 | 60 | 1009.5 |
| 20260904025204 | 58 | 94 | 0.0 | 0.0 | 0.00 | 0.13 | 0.13 | 60 | 1009.6 |
| 20260904024826 | 59 | 94 | 0.0 | 0.0 | 0.00 | 0.13 | 0.13 | 59 | 1009.4 |
| 20260904024752 | 58 | 94 | 0.0 | 0.0 | 0.00 | 0.13 | 0.13 | 59 | 1009.5 |
| 20260904024002 | 0 | 0.0 | 0.0 | 0.00 | 0.13 | 0.13 | |||
| 20260904023506 | 0 | 0.0 | 0.0 | 0.00 | 0.13 | 0.13 | |||
| 20260904022952 | 0 | 0.0 | 0.0 | 0.00 | 0.13 | 0.13 | |||
| 20260904022450 | 0 | 0.0 | 0.0 | 0.00 | 0.13 | 0.13 | |||
| 20260904021934 | 60 | 94 | 0.0 | 0.0 | 0.00 | 0.13 | 0.13 | 57 | 1009.5 |
| 20260904021431 | 60 | 94 | 0.0 | 0.0 | 0.00 | 0.13 | 0.13 | 57 | 1009.5 |
| 20260904020932 | 61 | 94 | 0.0 | 0.0 | 0.00 | 0.13 | 0.13 | 57 | 1009.5 |
| 20260904020431 | 61 | 94 | 0.0 | 0.0 | 0.00 | 0.13 | 0.13 | 56 | 1009.5 |